Regional Weather Roundup
Issued by NWS

Home | Current Version | Previous Version | Text Only | Print | Product List | Glossary On
Versions: 1 2 3 4 5 6 7 8 9 10 11 12 13 14 15 16 17 18 19 20 21 22 23 24 25 26 27 28 29 30 31 32 33 34 35 36 37 38 39 40 41 42 43 44 45 46 47 48 49 50
155
ASUS44 KLIX 301205
RWRLA
LOUISIANA WEATHER ROUNDUP
NATIONAL WEATHER SERVICE NEW ORLEANS LA
700 AM CDT TUE SEP 30 2014

NOTE: "FAIR" INDICATES FEW OR NO CLOUDS BELOW 12,000 FEET WITH NO
      SIGNIFICANT WEATHER AND/OR OBSTRUCTIONS TO VISIBILITY.
      SKY/WX - SKY CONDITION AND SIGNIFICANT WEATHER.
      TMP - AIR TEMPERATURE.    DP   - DEWPOINT TEMPERATURE.
      RH  - RELATIVE HUMIDITY.  PRES - PRESSURE.
      HX  - HEAT INDEX.         WCI  - WIND CHILL INDEX.

*  THESE STATIONS ARE NOT NWS OR FAA STATIONS AND ARE NOT UNDER
   NWS QUALITY CONTROL.

LAZ040-048-061>063-065-066-069-301300-
SOUTHEAST LOUISIANA

CITY           SKY/WX    TMP DP  RH WIND       PRES   REMARKS
N.O. AUDUBON     N/A     76  73  92 MISG        N/A
6HR MIN TEMP:  73; 6HR MAX TEMP:  76;

N.O. INTL ARPT PTCLDY    75  71  87 E3        29.88R
6HR MIN TEMP:  73; 6HR MAX TEMP:  77;

N.O. LAKEFRONT CLEAR     76  72  87 E12       29.89R
6HR MIN TEMP:  76; 6HR MAX TEMP:  79;

N.O. DOWNTOWN* FAIR      75  68  78 NE6       29.89S
6HR MIN TEMP:  75; 6HR MAX TEMP:  79;

SLIDELL        CLEAR     68  66  93 CALM      29.90R
6HR MIN TEMP:  68; 6HR MAX TEMP:  72;

BATON ROUGE    CLEAR     69  68  96 CALM      29.90R
6HR MIN TEMP:  69; 6HR MAX TEMP:  72; 6HR PCP: TRACE;

BOOTHVILLE     LGT RAIN  77  74  90 CALM      29.88S
6HR MIN TEMP:  77; 6HR MAX TEMP:  79; 6HR PCP:  0.02;

BELLE CHASSE   PTCLDY    71  68  90 CALM      29.88R FOG
6HR MIN TEMP:  70; 6HR MAX TEMP:  73;

BOGALUSA*        N/A     68  65  90 CALM      29.92R FOG
6HR MIN TEMP:  68; 6HR MAX TEMP:  72;

GALLIANO*      NOT AVBL
NEW ROADS*     FOG       69  68  98 CALM      29.90R VSB 1/2
6HR MIN TEMP:  68; 6HR MAX TEMP:  72;

GONZALES*      FAIR      69  69 100 CALM      29.89R FOG
6HR MIN TEMP:  69; 6HR MAX TEMP:  72;

HAMMOND*       CLEAR     72  68  88 CALM      29.91R
HOUMA*         CLEAR    N/A N/A N/A CALM      29.88R FOG
PORT FOURCHON* MOSUNNY   77  75  94 N7        29.91R

$$

LAZ041-044-053-054-301300-
SOUTHWEST LOUISIANA

CITY           SKY/WX    TMP DP  RH WIND       PRES   REMARKS
LAKE CHARLES   CLEAR     71  70  96 CALM      29.88R FOG
6HR MIN TEMP:  71; 6HR MAX TEMP:  74;

LAFAYETTE      CLEAR     72  71  97 CALM      29.89R
6HR MIN TEMP:  71; 6HR MAX TEMP:  73;

PATTERSON      CLEAR     70  70 100 CALM      29.90S
6HR MIN TEMP:  70; 6HR MAX TEMP:  72;

SALT POINT       N/A     75  73  93 CALM      29.87R
6HR MIN TEMP:  75; 6HR MAX TEMP:  78; 6HR PCP:  0.01;

NEW IBERIA     CLEAR     71  70  96 CALM      29.89S FOG
6HR MIN TEMP:  70; 6HR MAX TEMP:  74;

CHENAULT AIRPK NOT AVBL

$$

LAZ027-028-301300-
CENTRAL LOUISIANA

CITY           SKY/WX    TMP DP  RH WIND       PRES   REMARKS
FORT POLK      CLEAR     69  67  95 E2        29.89S
6HR MIN TEMP:  68; 6HR MAX TEMP:  73;

ALEXANDRIA INT CLOUDY    70  68  93 CALM      29.88S
6HR MIN TEMP:  67; 6HR MAX TEMP:  71;

ALEXANDRIA     CLOUDY    68  66  93 CALM      29.90S
6HR MIN TEMP:  66; 6HR MAX TEMP:  71;


$$

LAZ001-002-301300-
NORTHWEST LOUISIANA

CITY           SKY/WX    TMP DP  RH WIND       PRES   REMARKS
SHREVEPORT     MOCLDY    68  64  87 CALM      29.91R
6HR MIN TEMP:  68; 6HR MAX TEMP:  73;

BARKSDALE AFB  MOCLDY    69  64  85 N3        29.91S
6HR MIN TEMP:  68; 6HR MAX TEMP:  72;

DTN SHREVEPORT CLOUDY    67  64  90 CALM      29.91R
6HR MIN TEMP:  67; 6HR MAX TEMP:  72;


$$

LAZ014-016-301300-
NORTHEAST LOUISIANA

CITY           SKY/WX    TMP DP  RH WIND       PRES   REMARKS
MONROE         CLOUDY    66  63  90 CALM      29.92S
6HR MIN TEMP:  65; 6HR MAX TEMP:  71;

TALLULAH       CLEAR     63  61  93 CALM      29.92R
6HR MIN TEMP:  63; 6HR MAX TEMP:  67;


$$




USA.gov is the U.S. government's official web portal to all federal, state and local government web resources and services.